sat.trackr.live / text

‹ back to catalog

STARLINK-34060

NORAD 63815 · 2025-092M

PAYLOAD ACTIVE UNKNOWN

§ Identity

Operator
Country
US
Launch date
2025-05-04
Launch site
AFETR
Launch vehicle
Mass (kg)
RCS (m²)

Purposes: comms

External: N2YO · Heavens-Above · Gunter

§ Orbital elements

Epoch: 2026-05-25T03:56:56.103936Z

Period
94.27 min
Inclination
43.0001°
Eccentricity
0.0001586
Mean motion
15.27587129 rev/d
Perigee alt
481.9 km
Apogee alt
484.1 km
Semi-major
6,861.2 km
B*
6.2094e-4
RAAN
100.3830°
Arg perigee
276.6025°
Mean anomaly
83.4646°
Rev number
6,025

§ Raw data

STARLINK-340601 63815U 25092M   26145.16453824  .00016868  00000+0  62094-3 0  99942 63815  43.0001 100.3830 0001586 276.6025  83.4646 15.27587129 60257

JSON: /api/v1/satellites/63815 · /tle

For live sub-satellite position, see the globe view (requires WebGL).

§ Visibility from observer

Set your observer location to see the next 7 days of passes ≥ 10°. The values pass through the URL so the page stays shareable.

No JS? Fill the form by hand. The geolocation button needs JavaScript.